Балыгычан

Россия / Магаданская область     63°56′03″N   154°13′25″E
темп.,
°C
ветер,
м/с
пор.,
м/с
влажн.,
%
обл.,
%
осадки,
мм/ч
давл.,
гПа
погр.,
м
2 марта, вт
вт223:00−38юз119565 0.0 102219
02:00−40юз119576 0.0 102318
05:00−40юз119586 0.0 102418
08:00−39юз1193100 0.0 102618
11:00−36ююз2186100 0.0 1026204
14:00−34ююз1180100 0.0 1027314
17:00−33ю1185100 0.0 1027199
20:00−35в1189100 0.0 102819
3 марта, ср
ср323:00−33в1191100 0.0 102819
02:00−32св1198100 0.1 102722
05:00−32св2297100 0.3 102632
08:00−32ссв2297100 0.1 102530
11:00−30ссв239298 0.1 1022185
14:00−28ссв348996 0.0 1019313
17:00−29с229598 0.0 101519
20:00−29ссз2297100 0.0 101323
4 марта, чт
чт423:00−30ссз2299100 0.3 100986
02:00−30сз2299100 0.4 100699
05:00−31зсз3398100 0.8 1004128
08:00−34зюз4598100 0.4 1002333
11:00−34зюз5695100 0.8 1001644
14:00−33зсз91295100 0.6 1000762
17:00−32сз101395100 1.2 1000846
20:00−33зсз61297100 0.6 1000705
5 марта, пт
пт523:00−33з61198100 1.0 1000618
02:00−32з61097100 0.4 1000549
05:00−32зюз4798100 0.7 1001171
08:00−30зюз4898100 0.3 1001242
11:00−26зсз91390100 0.6 10021386
14:00−25сз101486100 0.1 10021457
17:00−25сз101487100 0.3 10021288
20:00−27зсз81591100 0.1 1004769
6 марта, сб
сб623:00−27сз81588100 0.1 1005655
02:00−27сз61386100 0.0 1006455
05:00−28сз41089100 0.1 1007294
08:00−28зсз4993100 0.1 1008341
11:00−26сз71091100 0.3 1009893
14:00−26сз81192100 0.3 10091062
17:00−27сз91293100 0.7 10091132
20:00−27сз91494100 0.3 1010730